Wind_Speed
63 62 61 59 59 58 59 59 59 58 59 58 58 56 55 54 52 51 50 49 48 48 48 47 47 48 48 48 47 46 45 44 43 42 41 39 37 37 37 37 38 40 43 44 44 41 40 38 37 37 39 40 38 36 35 35 36 38 39 39 38 37 38
58 56 55 54 54 55 55 55 55 55 55 54 54 53 52 51 51 51 50 50 49 49 49 49 49 49 50 49 48 47 47 46 45 44 43 41 39 38 38 38 38 39 41 44 46 44 42 42 40 38 39 41 40 39 37 35 36 39 41 41 39 37 38
54 54 53 53 54 54 54 53 53 53 52 52 51 51 50 49 50 50 50 50 50 50 50 50 51 51 50 50 49 48 48 48 47 46 45 44 42 40 40 39 40 40 40 41 44 45 44 45 45 43 41 40 40 41 39 37 38 39 40 40 39 39 40
54 54 54 54 54 52 51 51 51 51 51 50 50 50 50 49 49 49 50 50 50 51 52 52 52 52 51 51 50 49 49 49 49 49 48 46 44 42 41 40 41 42 42 41 42 44 45 47 49 49 46 43 41 42 41 40 40 39 39 38 38 41 43
55 55 55 54 53 51 49 48 48 49 50 50 50 50 50 50 50 50 50 50 51 51 53 53 54 53 53 52 51 51 50 50 51 50 50 48 46 45 43 42 42 43 44 43 42 42 44 47 49 50 50 47 44 43 43 42 41 40 40 39 39 42 43
57 56 55 53 51 49 47 46 47 49 49 50 50 50 51 51 51 51 50 50 51 52 53 54 54 55 55 54 54 53 52 52 52 52 51 50 49 47 45 43 43 44 45 45 44 43 43 45 48 53 53 49 46 46 44 42 41 41 40 40 40 41 42
56 55 53 52 51 49 48 48 49 50 50 51 52 52 52 52 52 52 52 51 51 52 53 54 55 55 56 56 56 55 54 53 52 53 52 51 51 50 47 45 44 45 46 46 45 44 43 43 47 53 56 52 48 48 47 44 43 42 42 42 42 41 40
54 53 52 52 52 51 51 52 52 51 52 52 53 54 54 55 54 54 53 53 52 52 53 53 54 55 56 57 57 56 55 54 53 54 54 53 52 51 49 47 46 46 47 47 46 45 44 43 45 51 55 55 51 50 50 47 44 43 44 44 43 41 41
53 52 52 53 55 54 55 55 55 54 53 54 54 55 56 56 56 55 55 54 54 54 54 54 54 55 55 56 56 56 56 55 54 55 55 54 53 53 51 49 47 47 48 47 46 46 44 42 44 47 51 54 53 52 51 48 46 46 46 46 46 45 45
53 54 55 56 57 57 58 58 57 56 55 55 55 56 56 57 57 56 56 56 55 55 55 55 55 55 55 56 56 56 56 55 55 55 55 55 54 53 52 51 49 48 48 47 46 46 44 42 42 45 49 52 53 53 52 50 48 47 46 47 48 47 46
55 56 58 59 59 59 60 60 59 58 58 57 57 56 57 57 57 57 56 56 56 56 56 56 56 56 56 56 56 56 56 56 56 56 56 55 55 54 53 52 50 48 48 47 46 46 44 41 41 44 46 50 53 53 52 51 49 48 46 45 44 43 43
58 59 60 60 60 61 62 62 62 61 60 59 58 58 58 58 58 57 56 56 57 57 57 57 56 56 56 56 56 56 56 56 56 56 56 56 55 54 54 53 51 48 47 46 46 46 43 39 39 42 44 48 52 53 52 49 49 49 47 44 43 44 44
60 61 61 61 62 63 64 64 64 63 62 61 60 59 59 58 58 57 56 56 56 56 57 57 57 57 57 57 56 57 56 56 56 56 57 57 55 54 54 54 51 48 47 46 45 45 42 38 38 41 42 44 48 50 49 47 47 47 47 46 44 44 45
62 63 63 63 64 64 65 65 65 65 64 63 62 61 60 58 58 57 56 56 56 56 57 57 57 57 57 57 57 56 56 56 56 57 57 57 56 55 54 54 52 49 47 45 44 44 41 37 38 40 40 42 44 47 46 45 45 45 45 45 43 41 41
64 64 65 65 65 65 65 66 66 65 65 64 64 63 61 60 60 59 57 56 56 56 57 57 58 57 58 58 57 56 56 56 57 57 57 58 57 56 55 53 52 49 46 45 44 43 40 38 39 39 38 39 43 45 45 44 44 44 43 42 41 39 36
65 65 65 65 65 65 66 66 66 66 66 67 66 65 64 63 61 58 56 56 56 56 57 57 58 58 58 58 58 57 56 56 56 57 57 58 57 57 55 53 52 49 46 45 43 41 38 39 41 39 39 40 42 44 45 44 44 45 44 42 39 36 35
64 64 64 65 65 66 66 67 67 68 68 68 68 67 66 64 60 56 55 55 56 56 57 57 58 58 58 58 58 58 57 56 56 57 57 58 58 57 56 54 52 49 46 44 42 39 37 42 44 42 43 43 43 43 43 43 45 47 47 44 40 39 39
66 66 66 66 66 67 68 69 70 70 69 68 68 67 65 63 60 58 57 57 57 57 57 58 58 58 58 58 58 58 58 57 57 57 57 58 58 57 56 54 52 50 46 44 42 38 37 46 48 46 47 46 45 45 45 45 47 48 50 49 46 44 42
68 69 69 69 69 70 70 71 70 70 69 68 66 65 64 63 62 61 60 59 58 58 58 58 59 59 59 58 58 58 58 58 57 57 57 58 57 57 55 54 53 50 47 44 42 38 38 49 51 50 51 50 48 49 48 47 48 48 49 48 44 41 39
71 72 72 72 72 71 71 70 69 68 67 66 65 65 64 64 64 63 62 61 59 58 58 59 60 60 60 59 59 59 58 58 58 58 58 58 58 57 55 54 53 51 48 45 43 39 39 50 54 52 55 54 53 52 51 50 49 47 47 46 41 39 40
72 72 73 72 71 70 69 68 67 66 66 66 66 65 65 65 65 64 63 61 60 60 60 60 60 61 61 61 60 59 59 59 59 59 59 58 58 57 56 54 53 51 49 46 44 41 40 50 56 54 56 58 56 56 54 53 52 49 47 46 45 45 46
70 70 70 70 69 68 67 66 65 65 66 66 66 66 66 66 65 64 63 63 62 62 61 60 60 61 62 62 62 61 60 60 60 60 60 59 58 57 56 55 53 52 50 48 45 43 42 50 59 58 57 59 58 58 57 56 54 51 49 49 49 49 49
68 67 67 66 65 65 64 64 64 64 65 65 66 66 67 67 66 65 65 64 63 63 62 61 61 61 62 63 63 63 62 61 60 60 61 60 60 59 57 56 54 53 51 49 47 45 43 49 60 63 60 60 60 59 59 56 53 51 52 53 52 51 51
66 65 63 62 62 62 62 63 63 63 64 65 66 67 68 68 68 67 66 65 64 63 62 62 62 62 62 63 63 64 64 64 62 61 61 61 61 60 59 58 56 54 53 51 49 47 46 48 58 65 65 63 62 60 60 58 54 52 54 54 53 53 53
64 62 60 60 60 60 61 62 63 64 65 66 67 67 68 68 68 67 66 65 64 64 63 63 63 63 63 64 64 64 65 65 65 64 63 62 62 62 61 60 58 57 55 53 51 49 48 49 56 65 68 66 64 62 61 60 57 56 56 56 55 54 53
60 59 59 59 60 61 62 64 65 66 66 66 66 67 67 67 68 67 67 66 66 65 65 65 65 65 65 65 66 66 66 67 67 67 66 65 63 63 63 62 61 59 58 56 53 52 51 51 55 64 70 69 67 66 64 62 61 60 60 59 57 55 54
59 59 60 61 62 63 64 65 66 66 66 66 67 67 68 68 68 68 67 67 67 67 67 67 68 68 68 68 68 68 69 69 69 69 68 68 67 65 64 64 63 61 60 58 56 54 53 53 55 61 69 72 71 70 68 65 64 63 62 61 59 57 56
60 60 61 62 63 64 64 65 66 66 67 68 68 68 69 69 69 69 69 69 69 69 70 70 71 71 71 71 71 71 71 71 71 71 70 70 70 68 67 65 65 64 62 61 59 57 56 56 56 59 67 73 73 72 71 69 67 65 63 62 60 59 59
60 61 62 63 63 64 64 66 67 68 69 69 69 69 70 70 71 71 72 72 73 73 73 74 74 75 75 75 75 74 74 74 74 74 73 73 72 71 70 68 67 66 65 63 61 59 58 58 58 59 64 71 74 73 72 71 70 68 65 62 61 60 59
61 61 62 62 63 64 65 67 68 69 70 70 70 71 71 72 73 74 75 75 76 77 77 78 78 78 79 79 79 79 78 77 77 76 76 75 74 73 73 71 70 68 67 66 64 63 61 60 60 60 62 68 74 75 74 73 72 70 69 66 63 61 59
61 62 62 63 64 66 67 68 70 70 71 71 72 73 73 74 75 76 77 78 79 79 80 80 81 81 81 81 81 81 80 80 79 78 77 77 76 75 74 73 72 71 69 68 67 66 64 63 63 62 62 65 71 75 76 75 73 72 71 69 67 66 64
61 62 64 65 67 68 69 70 71 72 73 73 74 75 76 77 78 79 79 80 81 81 81 81 81 81 81 81 81 81 81 81 80 79 78 78 77 76 75 74 73 73 72 71 69 68 67 66 65 65 64 65 69 75 77 76 75 74 73 71 71 69 68
63 64 66 67 69 69 70 71 72 73 74 75 76 77 78 79 80 80 80 80 81 81 80 80 79 79 79 79 79 79 80 80 79 78 78 78 77 76 75 74 74 74 73 73 72 71 70 69 68 68 67 66 68 73 78 79 78 77 75 74 73 72 71
65 66 67 68 69 70 71 72 74 75 76 77 78 79 80 80 80 81 80 80 79 78 77 77 76 75 75 75 75 75 75 75 76 76 75 75 76 75 75 75 74 74 74 74 74 73 72 72 71 70 69 69 68 71 77 80 81 80 79 77 75 73 72
66 67 68 69 70 71 72 73 74 76 77 78 79 80 80 80 80 79 78 77 76 74 73 72 71 70 70 70 70 71 70 70 71 72 71 71 71 72 73 73 73 73 73 74 75 75 74 74 73 72 71 71 71 71 74 79 82 82 82 81 78 76 74
66 67 68 69 70 71 73 74 75 76 77 78 79 79 79 78 77 76 74 73 71 70 69 67 66 66 65 66 66 66 66 66 65 66 67 66 66 67 68 69 71 72 72 73 75 76 76 76 75 74 73 73 73 73 73 77 81 83 83 83 82 80 78
66 67 68 69 71 72 73 74 76 77 77 77 77 76 75 74 73 71 70 68 67 66 65 64 63 62 62 62 62 63 62 62 61 61 61 61 61 62 64 64 66 69 70 71 73 75 77 77 77 76 75 75 75 75 74 75 79 82 83 83 83 83 82
Wind_Direction
281 282 284 285 286 286 286 285 285 285 285 286 285 285 285 285 284 283 282 280 279 278 277 277 277 277 278 279 281 282 283 284 285 285 285 285 286 286 286 283 278 272 269 269 270 268 263 259 259 259 260 260 259 256 256 256 257 257 257 258 257 256 258
282 284 285 287 288 288 288 288 287 287 287 287 286 286 286 285 285 284 282 281 279 277 276 276 276 276 277 279 280 281 283 284 284 285 285 284 285 285 286 285 281 276 270 267 266 266 263 258 256 256 257 258 258 258 257 257 257 256 255 257 257 256 258
281 283 284 286 287 288 289 289 290 290 289 288 287 287 287 286 285 284 283 281 279 277 275 275 274 275 276 277 279 280 282 283 284 284 284 284 284 284 284 284 284 281 276 271 266 263 262 259 255 254 253 254 255 256 257 257 257 259 259 259 257 257 259
281 283 284 286 287 287 287 288 289 290 290 290 289 288 288 287 285 284 283 281 278 276 275 274 274 274 275 276 277 278 280 281 282 283 283 283 284 284 283 283 284 283 280 277 272 266 261 258 255 253 252 251 251 253 255 255 255 258 261 260 256 256 260
281 283 284 285 285 285 286 287 288 289 289 289 289 289 289 288 287 285 283 282 280 277 275 275 274 274 275 275 276 276 277 279 280 281 282 283 283 283 283 283 283 284 283 281 278 272 265 258 253 251 252 251 248 249 252 254 254 255 258 259 257 257 260
281 282 283 284 284 285 284 286 287 288 289 289 289 289 288 287 287 286 284 283 281 278 276 275 274 274 274 274 274 275 275 276 278 279 280 282 283 282 282 283 283 284 285 284 282 278 271 262 253 248 249 250 247 246 249 252 253 254 257 259 258 259 262
282 283 283 283 284 284 283 285 286 287 288 289 289 289 288 287 286 285 284 283 281 279 277 275 274 273 273 273 273 274 274 275 276 277 279 280 282 282 282 283 284 285 285 285 285 283 276 267 257 248 246 248 246 243 244 247 249 252 255 257 259 261 263
282 282 283 283 284 283 283 284 286 287 287 287 288 289 289 288 286 285 284 283 282 280 278 276 275 274 273 273 274 274 275 275 276 277 278 279 281 282 283 283 284 285 286 286 286 285 279 271 261 251 245 245 245 242 242 244 246 248 252 254 257 260 263
281 282 283 284 284 284 285 286 286 287 287 287 287 288 289 289 288 286 285 283 282 281 280 279 277 276 275 274 274 275 275 276 276 277 278 279 280 282 283 284 284 285 286 287 287 287 282 274 263 252 244 241 242 243 242 244 245 247 250 253 254 257 260
281 281 283 285 285 285 285 286 287 287 287 287 287 288 288 288 287 287 285 284 283 282 281 281 280 278 277 276 275 275 275 275 276 276 277 278 280 281 282 283 284 285 286 288 289 288 285 277 264 252 242 238 240 242 242 242 244 245 249 252 254 255 258
281 281 283 284 284 285 286 287 287 287 287 288 288 288 289 288 287 286 284 283 282 281 281 281 280 279 279 278 276 275 275 274 275 275 276 277 278 280 281 282 283 284 286 288 290 289 286 278 264 252 243 237 238 241 242 243 243 244 247 251 253 255 256
282 282 282 283 284 285 286 287 287 287 288 288 288 289 290 289 288 286 284 282 281 280 280 280 279 279 279 278 277 276 275 274 274 274 275 276 277 278 279 281 282 283 286 288 290 289 287 278 262 251 244 239 237 239 241 242 242 243 245 249 255 259 260
282 283 283 284 285 286 287 287 287 288 288 289 289 290 290 289 288 286 285 283 281 280 279 279 279 279 279 278 277 277 276 274 273 273 274 274 275 276 278 279 281 282 285 287 289 289 287 274 256 246 244 242 240 240 240 242 243 244 246 251 257 261 261
282 283 283 284 285 286 287 287 287 288 288 289 291 291 290 290 289 288 286 284 282 280 279 279 279 279 279 278 278 277 277 276 274 273 273 274 274 275 276 278 280 281 284 286 288 289 285 268 249 242 242 241 239 239 241 243 244 245 248 250 254 257 258
281 282 283 284 284 285 285 286 287 288 289 291 291 291 291 292 291 289 286 285 283 282 280 279 279 279 279 279 278 278 277 276 275 274 273 273 274 275 275 277 278 280 282 284 286 288 281 260 244 239 237 236 235 237 239 239 240 242 244 246 249 251 252
280 281 282 282 283 284 284 285 287 289 290 291 291 291 291 292 291 288 286 284 284 283 281 279 279 279 279 278 278 278 277 276 275 274 274 273 273 274 274 275 277 278 280 282 284 286 274 250 239 234 231 231 232 236 239 238 239 242 241 241 244 246 247
279 279 280 281 282 283 283 285 287 289 289 289 289 290 291 291 290 288 287 286 285 283 281 279 278 278 278 278 278 278 277 276 276 274 274 273 273 273 273 274 275 276 278 279 281 283 265 241 234 231 229 229 230 234 239 239 240 241 238 236 238 242 246
278 278 279 279 280 281 283 284 286 287 287 287 288 289 290 290 290 289 288 288 286 284 281 279 278 277 277 277 277 277 277 276 275 274 273 273 272 272 272 273 274 274 276 276 277 278 257 236 232 230 229 230 229 231 236 236 237 237 235 235 238 243 249
278 279 279 279 280 281 283 284 285 286 286 287 287 288 288 289 288 288 288 288 286 284 282 280 278 277 276 276 276 276 275 275 274 274 273 272 272 272 271 271 272 272 273 273 273 273 252 233 232 232 230 231 231 231 233 234 234 236 236 238 241 244 248
279 279 280 280 281 282 283 284 285 285 285 286 286 286 287 287 287 287 287 286 285 284 282 280 278 277 276 275 275 275 274 274 273 272 272 271 271 271 270 270 270 270 271 269 269 270 251 232 231 234 232 232 232 232 233 233 234 236 238 238 237 237 239
279 280 280 281 282 282 283 283 283 283 284 284 285 285 285 286 286 286 286 286 285 284 282 280 278 278 277 276 275 274 273 273 272 271 271 270 270 270 269 268 268 267 268 267 265 266 253 233 229 233 234 233 233 232 233 234 233 235 236 235 235 235 237
280 280 281 281 282 282 282 282 282 282 283 283 284 285 285 285 285 286 286 286 285 284 282 280 278 278 277 276 275 274 273 272 271 270 270 269 268 268 267 266 266 265 265 264 261 261 255 238 229 231 233 233 234 233 233 234 234 234 235 235 236 239 242
282 282 282 282 282 282 282 282 283 283 283 283 283 284 285 285 285 285 285 285 284 283 281 279 278 277 276 276 276 275 273 271 270 269 268 268 267 266 265 264 264 263 261 261 258 257 255 243 232 230 232 233 234 234 234 234 234 235 238 239 240 242 244
284 283 283 283 283 282 282 283 283 282 282 283 283 283 284 285 285 285 285 284 284 282 281 279 278 276 276 275 275 274 274 272 270 268 267 266 265 264 264 262 262 261 259 258 257 253 252 247 236 231 232 233 233 233 234 233 232 234 237 240 241 242 244
285 284 283 283 283 283 282 282 282 282 282 282 283 283 284 284 285 285 285 285 283 282 281 279 278 276 275 275 274 273 273 272 271 269 267 265 264 263 262 260 259 259 257 256 255 251 249 247 240 234 232 233 233 232 232 232 231 231 235 238 240 241 242
284 283 283 283 282 282 282 282 283 283 283 284 284 284 284 285 285 285 285 284 284 282 281 279 278 276 275 274 273 272 271 270 270 269 268 266 263 261 260 259 257 256 255 254 252 249 247 247 242 236 233 233 233 232 232 232 231 232 234 236 238 240 240
282 282 282 282 282 282 283 284 284 285 285 286 286 286 286 286 286 285 285 284 283 282 281 280 278 277 275 274 273 272 271 270 268 268 267 266 264 262 259 258 256 255 253 252 250 248 246 245 244 238 234 233 234 233 233 232 232 233 235 237 238 239 239
282 282 282 283 283 284 285 286 287 287 287 287 288 288 288 287 287 287 286 285 284 283 282 281 279 278 276 274 272 271 270 269 268 267 265 264 264 262 260 258 256 254 252 250 248 246 244 243 243 240 235 233 234 234 234 233 232 233 235 237 238 239 239
283 283 284 284 285 286 287 287 288 288 288 289 289 289 289 289 288 288 287 286 285 284 283 282 280 279 278 276 274 272 270 269 268 266 265 263 262 261 260 258 255 253 252 249 247 245 243 241 242 241 237 233 233 234 235 235 234 233 233 234 236 238 239
284 285 285 286 287 288 288 289 289 289 289 289 289 289 289 289 288 288 287 286 286 285 283 282 281 280 279 277 276 274 272 270 268 267 265 264 262 260 259 258 255 253 251 249 247 244 242 240 240 240 239 235 233 233 234 235 235 234 233 233 234 236 237
285 286 287 288 288 289 290 290 290 290 290 290 290 290 290 289 289 288 288 287 286 285 285 284 283 281 280 278 277 275 274 272 270 268 266 264 262 260 258 256 255 253 250 248 246 244 241 239 238 238 238 236 233 232 233 234 235 234 234 233 234 234 235
286 288 289 290 290 291 291 291 291 291 291 291 291 291 290 290 289 289 289 288 287 287 286 285 284 282 281 280 278 276 275 273 271 269 267 265 263 261 258 255 253 252 250 248 246 244 241 239 237 237 237 236 234 232 232 233 234 234 234 234 234 235 236
289 290 291 291 292 292 292 292 292 292 292 291 291 291 291 291 291 291 290 290 289 289 288 286 285 284 282 281 279 277 275 274 272 270 268 266 264 261 259 256 253 251 249 247 245 243 241 239 237 236 235 235 234 233 232 232 232 233 233 234 235 236 237
291 291 291 291 291 291 291 291 292 292 292 293 293 293 293 293 293 293 293 292 291 291 290 289 287 286 284 282 280 278 276 275 273 271 269 266 264 262 260 257 254 250 248 246 244 242 241 239 237 235 234 234 234 233 232 232 232 233 233 234 235 236 237
290 290 291 291 291 291 292 292 293 293 294 294 295 295 295 295 295 295 294 294 293 293 292 290 289 288 286 284 282 280 278 276 274 272 270 267 265 262 260 257 255 251 248 245 243 241 240 238 237 235 233 233 233 233 232 232 232 233 233 234 235 236 236
290 290 290 291 291 292 293 294 294 295 296 296 297 297 297 297 297 297 296 296 295 294 294 292 291 289 288 286 284 282 280 278 275 273 272 269 266 263 260 257 255 252 248 245 242 240 239 237 236 235 232 231 232 233 233 232 232 232 233 234 234 235 235
290 291 291 292 293 294 295 296 296 297 298 298 299 299 299 299 299 298 298 298 298 297 296 295 293 292 290 288 286 284 282 280 278 275 273 270 267 264 261 258 254 252 249 245 242 239 238 236 235 234 232 230 230 232 233 232 232 231 232 233 233 234 234
Height
10695 10694 10694 10693 10692 10690 10689 10689 10689 10688 10687 10686 10686 10685 10685 10684 10683 10683 10683 10683 10683 10682 10681 10681 10680 10679 10679 10680 10680 10679 10679 10679 10680 10679 10678 10678 10678 10678 10677 10677 10675 10674 10673 10672 10671 10671 10671 10670 10670 10670 10669 10669 10671 10672 10673 10675 10676 10676 10677 10677 10678 10680 10681
10690 10689 10688 10687 10686 10684 10683 10682 10682 10682 10682 10680 10679 10678 10678 10677 10676 10676 10676 10676 10675 10675 10674 10674 10673 10672 10672 10673 10673 10673 10672 10672 10673 10673 10672 10672 10673 10672 10671 10671 10670 10669 10668 10666 10665 10666 10666 10665 10665 10664 10664 10664 10665 10666 10668 10670 10671 10671 10672 10673 10674 10676 10676
10686 10685 10685 10684 10682 10680 10678 10676 10675 10675 10675 10674 10673 10672 10672 10671 10670 10669 10669 10669 10668 10668 10668 10667 10666 10666 10666 10666 10667 10666 10666 10666 10666 10666 10666 10666 10666 10666 10665 10665 10663 10662 10662 10660 10659 10660 10661 10660 10659 10658 10658 10660 10660 10661 10662 10664 10665 10666 10667 10669 10671 10671 10671
10682 10681 10681 10680 10678 10677 10675 10673 10671 10669 10668 10667 10667 10666 10665 10665 10664 10664 10663 10663 10662 10662 10661 10660 10660 10660 10660 10660 10660 10660 10660 10660 10659 10659 10659 10659 10659 10659 10659 10659 10657 10655 10655 10654 10653 10653 10654 10653 10653 10652 10653 10655 10656 10656 10657 10658 10660 10662 10662 10664 10666 10666 10666
10677 10676 10675 10674 10673 10672 10671 10670 10668 10666 10664 10663 10662 10661 10660 10658 10658 10657 10657 10656 10656 10655 10654 10654 10653 10653 10653 10653 10653 10654 10654 10654 10653 10653 10652 10651 10652 10652 10652 10652 10651 10649 10648 10647 10646 10646 10646 10646 10647 10647 10646 10648 10651 10651 10650 10652 10655 10657 10658 10659 10661 10660 10660
10670 10669 10669 10668 10667 10667 10666 10665 10664 10662 10661 10659 10658 10657 10655 10654 10652 10651 10651 10650 10649 10648 10647 10647 10647 10646 10646 10646 10646 10647 10648 10648 10647 10646 10645 10644 10644 10645 10645 10644 10644 10642 10641 10639 10639 10638 10638 10639 10640 10639 10639 10642 10645 10644 10644 10647 10649 10651 10653 10653 10654 10655 10655
10663 10662 10662 10661 10660 10660 10660 10659 10658 10657 10655 10654 10653 10652 10650 10649 10648 10646 10645 10644 10643 10642 10641 10641 10640 10640 10640 10640 10640 10640 10641 10641 10640 10639 10638 10638 10637 10637 10637 10637 10636 10635 10634 10633 10632 10630 10630 10631 10631 10631 10632 10636 10637 10637 10638 10640 10642 10644 10646 10646 10647 10649 10650
10656 10655 10655 10654 10653 10653 10653 10652 10651 10650 10649 10648 10647 10645 10644 10642 10641 10641 10640 10639 10638 10637 10635 10635 10634 10634 10633 10633 10633 10633 10633 10633 10633 10631 10630 10631 10630 10629 10629 10629 10629 10628 10627 10626 10625 10623 10622 10622 10623 10623 10625 10628 10630 10630 10631 10634 10637 10638 10639 10640 10641 10643 10644
10649 10648 10647 10646 10645 10645 10645 10644 10644 10643 10642 10641 10640 10639 10637 10635 10634 10633 10633 10632 10631 10629 10628 10628 10627 10626 10626 10626 10626 10626 10626 10626 10625 10624 10623 10623 10622 10622 10621 10621 10622 10621 10620 10619 10618 10616 10615 10614 10615 10616 10618 10621 10623 10624 10626 10629 10632 10633 10634 10635 10636 10637 10638
10642 10642 10641 10639 10638 10638 10638 10637 10636 10636 10635 10634 10633 10632 10631 10628 10627 10626 10625 10624 10623 10621 10620 10620 10619 10618 10618 10618 10618 10618 10618 10618 10617 10616 10616 10616 10615 10614 10614 10614 10615 10614 10613 10612 10611 10609 10608 10607 10607 10608 10611 10614 10616 10618 10621 10624 10626 10627 10628 10629 10630 10631 10632
10636 10635 10634 10633 10632 10631 10630 10630 10629 10628 10628 10627 10626 10625 10624 10622 10620 10619 10617 10616 10615 10614 10612 10612 10611 10611 10610 10610 10610 10610 10610 10611 10610 10609 10608 10608 10608 10607 10607 10606 10607 10607 10606 10605 10604 10602 10601 10600 10600 10601 10604 10607 10610 10612 10615 10618 10620 10621 10623 10623 10624 10625 10626
10629 10628 10627 10626 10625 10624 10623 10622 10621 10621 10620 10620 10619 10618 10617 10615 10613 10612 10610 10608 10607 10606 10605 10604 10603 10603 10603 10602 10602 10602 10602 10603 10603 10601 10600 10601 10601 10600 10600 10599 10600 10600 10600 10599 10597 10596 10595 10594 10594 10595 10598 10601 10604 10606 10608 10612 10614 10615 10616 10617 10617 10618 10620
10622 10621 10619 10619 10618 10617 10616 10614 10613 10613 10612 10612 10611 10610 10609 10607 10606 10605 10603 10601 10600 10598 10597 10596 10595 10594 10594 10594 10594 10594 10594 10595 10595 10594 10593 10592 10593 10593 10592 10592 10592 10593 10593 10592 10591 10589 10588 10588 10588 10589 10592 10595 10598 10600 10602 10606 10608 10608 10610 10612 10612 10613 10615
10615 10614 10613 10612 10611 10610 10608 10607 10605 10604 10604 10604 10603 10602 10600 10599 10597 10596 10595 10593 10592 10590 10589 10588 10587 10586 10586 10586 10586 10586 10586 10586 10586 10586 10586 10584 10585 10586 10585 10585 10585 10586 10586 10586 10585 10583 10582 10582 10583 10584 10587 10590 10592 10593 10596 10599 10601 10602 10605 10607 10608 10609 10610
10609 10608 10607 10605 10604 10602 10600 10599 10597 10596 10596 10595 10594 10593 10592 10591 10589 10588 10586 10585 10584 10582 10581 10579 10579 10578 10578 10577 10578 10578 10578 10578 10578 10578 10577 10577 10577 10577 10578 10578 10578 10579 10580 10579 10579 10577 10576 10576 10578 10579 10582 10585 10587 10588 10590 10593 10595 10596 10599 10601 10602 10604 10605
10603 10602 10601 10599 10597 10595 10593 10591 10590 10590 10589 10587 10586 10585 10583 10582 10581 10580 10578 10577 10576 10574 10573 10571 10570 10570 10569 10569 10569 10569 10570 10570 10570 10570 10569 10569 10569 10569 10570 10571 10571 10572 10573 10573 10572 10571 10570 10571 10573 10575 10577 10579 10581 10583 10584 10587 10589 10590 10593 10595 10597 10598 10599
10596 10596 10594 10592 10590 10588 10586 10585 10584 10583 10582 10580 10578 10577 10576 10575 10573 10572 10570 10569 10568 10566 10565 10564 10562 10562 10561 10561 10560 10560 10561 10562 10562 10562 10561 10561 10561 10562 10562 10563 10563 10564 10566 10566 10566 10565 10565 10565 10567 10570 10571 10573 10576 10578 10579 10581 10583 10584 10586 10588 10590 10592 10593
10588 10588 10587 10585 10584 10582 10580 10579 10578 10576 10575 10573 10571 10570 10569 10567 10566 10564 10563 10561 10560 10558 10556 10555 10554 10554 10553 10553 10552 10552 10552 10552 10553 10553 10553 10552 10553 10554 10554 10555 10556 10557 10559 10559 10559 10559 10559 10559 10561 10564 10565 10567 10570 10571 10573 10574 10575 10577 10579 10581 10583 10586 10587
10580 10579 10578 10577 10576 10575 10574 10572 10571 10569 10567 10566 10564 10563 10561 10559 10558 10556 10555 10553 10552 10550 10548 10547 10545 10545 10545 10545 10544 10544 10544 10544 10544 10544 10544 10544 10544 10546 10547 10547 10548 10549 10551 10552 10552 10552 10553 10554 10555 10557 10559 10561 10563 10564 10565 10567 10568 10570 10572 10575 10578 10581 10582
10572 10571 10570 10569 10569 10568 10567 10565 10563 10561 10559 10558 10556 10555 10553 10551 10550 10548 10547 10545 10544 10542 10541 10539 10537 10536 10536 10536 10536 10536 10536 10535 10535 10535 10535 10535 10536 10537 10539 10539 10540 10541 10543 10544 10545 10545 10546 10547 10549 10551 10552 10554 10555 10557 10558 10560 10562 10564 10566 10569 10572 10575 10576
10565 10563 10562 10561 10561 10560 10559 10557 10555 10553 10551 10549 10548 10546 10545 10543 10541 10540 10538 10537 10536 10534 10533 10531 10529 10527 10526 10527 10527 10527 10527 10527 10527 10526 10526 10526 10527 10528 10529 10531 10532 10533 10534 10536 10537 10538 10539 10540 10542 10543 10544 10546 10548 10549 10551 10553 10555 10558 10560 10563 10566 10568 10570
10557 10555 10554 10553 10552 10551 10550 10549 10547 10545 10543 10541 10539 10537 10535 10534 10533 10531 10530 10528 10527 10526 10524 10523 10521 10519 10517 10517 10517 10518 10519 10519 10518 10518 10517 10518 10518 10519 10520 10522 10524 10525 10526 10528 10529 10530 10531 10532 10534 10535 10536 10538 10541 10542 10544 10546 10549 10552 10554 10557 10559 10562 10565
10549 10547 10546 10545 10544 10543 10541 10540 10539 10537 10535 10533 10531 10528 10526 10525 10524 10522 10521 10520 10518 10517 10515 10514 10512 10511 10509 10508 10507 10507 10508 10509 10510 10509 10508 10508 10509 10510 10511 10512 10514 10516 10518 10519 10521 10522 10523 10524 10526 10528 10529 10531 10533 10535 10537 10540 10543 10546 10547 10550 10553 10556 10559
10540 10539 10538 10537 10536 10534 10533 10531 10530 10528 10526 10524 10522 10520 10518 10516 10514 10513 10512 10510 10509 10507 10506 10504 10503 10502 10501 10499 10498 10497 10497 10498 10499 10500 10500 10499 10499 10500 10501 10503 10505 10507 10509 10510 10512 10513 10514 10515 10517 10519 10521 10523 10525 10528 10530 10532 10536 10538 10540 10542 10545 10549 10552
10532 10531 10530 10528 10527 10526 10524 10523 10521 10519 10517 10516 10514 10512 10509 10507 10505 10503 10501 10500 10499 10497 10496 10495 10493 10492 10491 10490 10489 10488 10487 10486 10487 10488 10489 10490 10490 10490 10491 10493 10495 10497 10499 10501 10503 10504 10506 10507 10508 10511 10513 10515 10518 10520 10522 10525 10528 10531 10533 10535 10537 10541 10545
10524 10523 10522 10520 10519 10517 10516 10514 10512 10510 10508 10506 10505 10502 10500 10498 10495 10493 10491 10490 10489 10487 10485 10484 10483 10482 10481 10479 10478 10477 10477 10476 10476 10476 10477 10478 10479 10480 10480 10482 10484 10486 10488 10491 10493 10495 10496 10497 10499 10502 10505 10507 10510 10512 10515 10518 10521 10523 10525 10527 10530 10534 10537
10517 10515 10514 10512 10511 10509 10507 10505 10503 10501 10499 10497 10495 10493 10490 10488 10486 10484 10482 10480 10478 10476 10474 10472 10471 10470 10469 10468 10467 10466 10465 10465 10465 10465 10465 10466 10467 10469 10470 10471 10473 10475 10478 10480 10483 10485 10487 10488 10489 10492 10495 10498 10501 10504 10507 10510 10513 10515 10516 10519 10523 10527 10529
10510 10508 10506 10505 10503 10501 10499 10497 10494 10491 10489 10487 10485 10483 10480 10478 10475 10473 10471 10469 10467 10465 10463 10461 10459 10457 10456 10455 10455 10454 10453 10453 10452 10453 10453 10454 10455 10456 10458 10460 10461 10463 10466 10469 10472 10474 10477 10478 10480 10482 10485 10489 10492 10495 10498 10502 10504 10506 10508 10512 10516 10518 10521
10502 10501 10499 10497 10495 10493 10491 10488 10485 10482 10480 10478 10476 10473 10471 10468 10465 10462 10460 10457 10455 10453 10451 10449 10446 10444 10442 10441 10440 10440 10440 10440 10439 10439 10440 10441 10442 10443 10445 10447 10450 10451 10454 10457 10460 10463 10466 10468 10470 10472 10475 10478 10482 10486 10489 10492 10495 10498 10500 10504 10507 10510 10513
10495 10493 10491 10489 10487 10485 10482 10479 10476 10473 10471 10468 10466 10464 10461 10458 10455 10452 10449 10446 10443 10440 10438 10435 10433 10431 10429 10427 10425 10424 10424 10425 10425 10425 10426 10427 10429 10430 10432 10434 10436 10439 10441 10444 10448 10452 10455 10457 10459 10462 10464 10468 10472 10476 10479 10482 10486 10489 10492 10496 10499 10502 10505
10488 10486 10483 10481 10478 10476 10473 10470 10466 10464 10461 10459 10456 10453 10451 10448 10445 10441 10437 10434 10431 10428 10425 10421 10418 10416 10414 10412 10410 10408 10407 10408 10409 10409 10410 10411 10413 10416 10418 10420 10423 10425 10429 10432 10435 10439 10442 10445 10448 10451 10454 10457 10461 10465 10469 10472 10477 10481 10484 10488 10491 10493 10497
10480 10478 10475 10472 10469 10467 10464 10460 10457 10454 10451 10449 10446 10443 10440 10436 10433 10430 10426 10422 10418 10414 10411 10408 10404 10401 10399 10396 10394 10392 10391 10390 10391 10393 10394 10395 10397 10400 10403 10406 10409 10411 10415 10418 10422 10426 10430 10433 10436 10440 10443 10447 10450 10454 10457 10462 10467 10471 10475 10479 10482 10485 10488
10472 10469 10466 10463 10460 10457 10455 10451 10448 10445 10442 10439 10435 10432 10428 10424 10421 10417 10413 10409 10405 10400 10397 10393 10390 10386 10383 10381 10378 10376 10375 10374 10374 10375 10377 10378 10380 10383 10386 10390 10394 10397 10400 10404 10408 10412 10416 10420 10424 10428 10432 10436 10439 10442 10446 10452 10456 10460 10465 10469 10472 10475 10478
10463 10461 10458 10455 10451 10449 10446 10442 10439 10435 10432 10428 10424 10420 10416 10412 10408 10403 10399 10395 10392 10387 10383 10379 10375 10372 10368 10366 10363 10361 10360 10359 10358 10358 10360 10362 10363 10366 10369 10373 10377 10382 10386 10390 10394 10398 10402 10407 10411 10415 10420 10424 10427 10430 10435 10440 10445 10449 10455 10459 10462 10466 10469
10455 10452 10450 10446 10443 10440 10437 10434 10430 10426 10422 10417 10413 10409 10404 10400 10395 10391 10386 10382 10378 10375 10370 10366 10362 10359 10355 10351 10349 10346 10345 10345 10344 10342 10343 10345 10348 10350 10353 10356 10361 10365 10370 10375 10379 10383 10388 10393 10398 10403 10408 10412 10415 10419 10423 10428 10433 10438 10444 10448 10452 10456 10459
10447 10444 10441 10438 10434 10431 10428 10425 10420 10416 10412 10407 10403 10398 10393 10388 10384 10379 10375 10370 10366 10362 10358 10354 10351 10347 10343 10339 10336 10333 10332 10331 10330 10330 10329 10330 10333 10335 10337 10341 10344 10349 10354 10359 10364 10369 10374 10380 10385 10390 10396 10400 10404 10407 10412 10417 10422 10427 10432 10437 10441 10445 10449
10438 10435 10432 10429 10426 10422 10419 10415 10411 10406 10402 10397 10392 10387 10382 10378 10373 10369 10364 10360 10355 10351 10347 10343 10339 10335 10332 10328 10325 10322 10319 10318 10318 10318 10317 10318 10319 10321 10323 10326 10329 10333 10338 10344 10349 10354 10360 10365 10371 10377 10383 10388 10392 10396 10400 10405 10410 10416 10420 10425 10430 10434 10439